Weather Service Report


144 
ASCA42 TJSJ 212211
RWRPR 
PUERTO RICO/U.S. VIRGIN ISLANDS HOURLY WEATHER ROUNDUP
NATIONAL WEATHER SERVICE SAN JUAN PR
600 PM AST SUN SEP 21 2014

PRZ001-004-212300-
PUERTO RICO
  
CITY           SKY/WX    TMP DP  RH WIND       PRES   REMARKS
SAN JUAN LMM   PTCLDY    84  77  79 E8        29.98R HX  94           
AGUADILLA      PTCLDY    75  72  88 E5        29.98F                  
$$

PRZ006-007-212300-
U.S. VIRGIN ISLANDS
  
CITY           SKY/WX    TMP DP  RH WIND       PRES   REMARKS
$$

HOURLY WEATHER ROUNDUP FOR THE NEWS MEDIA
  
CITY           SKY/WX    TMP DP  RH WIND       PRES   REMARKS
MIAMI          LGT RAIN  84  74  71 SE8       29.98R HX  91           
ORLANDO        PTSUNNY   85  71  63 E8        29.96R HX  90           
NEW YORK       CLOUDY    74  67  78 E3        29.63F                  
NEWARK         CLOUDY    75  66  73 S3        29.62F                  
CHICAGO        PTSUNNY   65  49  56 NE10      29.99R                  
HARTFORD       CLOUDY    71  69  93 S5        29.65F                  
BOSTON         CLOUDY    68  65  90 E10       29.65F                  
DALLAS         PTSUNNY   95  59  30 CALM      30.00F HX  94           
PHILADELPHIA   PTSUNNY   77  65  66 S5        29.64F                  

Return to Home page


Western Regional Climate Center, wrcc@dri.edu